Weather History for KORE - September, 2013

Change the Weather History Date:

Thursday, September 5, 2013

  Actual Average Record
Temperature  
Mean Temperature 59 °F -  
Max Temperature 70 °F 74 °F 86 °F (2008)
Min Temperature 46 °F 51 °F 39 °F (1997)
Degree Days  
Heating Degree Days 6    
Growing Degree Days 9 (Base 50)    
Moisture  
Dew Point 49 °F    
Average Humidity 73    
Maximum Humidity 97    
Minimum Humidity 29    
Precipitation  
Precipitation 0.00 in - - ()
Sea Level Pressure  
Sea Level Pressure 30.00 in    
Wind  
Wind Speed 2 mph (North)    
Max Wind Speed 14 mph    
Max Gust Speed 22 mph    
Visibility 10 miles    
Events      
Averages and records for this station are not official NWS values.
T = Trace of Precipitation, MM = Missing Value Source: NWS Daily Summary

Daily Weather History Graph

Daily Weather History Graph

Search for Another Location

Airport or City:

Trip Planner

Search our weather history database for the weather conditions in past years. The results will help you decide how hot, cold, wet, or windy it might be!

Date:

Astronomy

Sep. 05, 2013 Rise Set
Actual Time 6:18 AM EDT 7:16 PM EDT
Civil Twilight 5:49 AM EDT 7:44 PM EDT
Nautical Twilight 5:15 AM EDT 8:18 PM EDT
Astronomical Twilight 4:39 AM EDT 8:54 PM EDT
Moon 6:28 AM EDT (9/5) 7:04 PM EDT (9/5)
Length of Visible Light 13h 54m
Length of Day
12h 57m
New Moon, 0% of the Moon is Illuminated
Sep 5
New Moon
Sep 12
First Quarter
Sep 19
Full
Sep 26
Last Quarter
Oct 4
New

Hourly Weather History & Observations

Time (EDT) Temp. Dew Point Humidity Pressure Visibility Wind Dir Wind Speed Gust Speed Precip Events Conditions
12:52 AM 57.0 °F 55.0 °F 93% 29.91 in 10.0 mi Calm Calm - N/A   Mostly Cloudy
1:52 AM 55.9 °F 54.0 °F 93% 29.90 in 10.0 mi Calm Calm - N/A   Partly Cloudy
2:52 AM 55.9 °F 55.0 °F 97% 29.90 in 10.0 mi Calm Calm - N/A   Overcast
3:52 AM 55.9 °F 54.0 °F 93% 29.88 in 10.0 mi Calm Calm - N/A   Mostly Cloudy
4:52 AM 55.9 °F 54.0 °F 93% 29.90 in 10.0 mi Calm Calm - N/A   Overcast
5:52 AM 55.9 °F 55.0 °F 97% 29.90 in 10.0 mi Calm Calm - N/A   Scattered Clouds
6:52 AM 57.0 °F 55.0 °F 93% 29.92 in 10.0 mi Calm Calm - N/A   Overcast
7:52 AM 57.9 °F 55.9 °F 93% 29.93 in 10.0 mi Calm Calm - N/A   Overcast
8:52 AM 61.0 °F 59.0 °F 93% 29.96 in 10.0 mi NW 4.6 mph - N/A   Overcast
9:06 AM 62.6 °F 57.2 °F 82% 29.97 in 10.0 mi North 6.9 mph - N/A   Overcast
9:33 AM 64.4 °F 53.6 °F 68% 29.97 in 10.0 mi North 13.8 mph 21.9 mph N/A   Mostly Cloudy
9:52 AM 64.0 °F 54.0 °F 70% 29.97 in 10.0 mi Variable 5.8 mph - N/A   Partly Cloudy
10:52 AM 64.9 °F 53.1 °F 65% 29.99 in 10.0 mi North - - N/A   Partly Cloudy
11:52 AM 66.0 °F 50.0 °F 56% 29.99 in 10.0 mi North - - N/A   Clear
12:52 PM 69.1 °F 41.0 °F 36% 30.00 in 10.0 mi North - - N/A   Partly Cloudy
1:52 PM 69.1 °F 39.0 °F 33% 30.00 in 10.0 mi North - - N/A   Clear
2:52 PM 69.1 °F 37.9 °F 32% 30.01 in 10.0 mi NNW 6.9 mph - N/A   Scattered Clouds
3:52 PM 70.0 °F 36.0 °F 29% 30.01 in 10.0 mi NNE 9.2 mph 16.1 mph N/A   Clear
4:52 PM 68.0 °F 37.0 °F 32% 30.03 in 10.0 mi NNW 9.2 mph - N/A   Mostly Cloudy
5:52 PM 66.0 °F 39.9 °F 38% 30.05 in 10.0 mi North 6.9 mph - N/A   Mostly Cloudy
6:52 PM 61.0 °F 45.0 °F 56% 30.06 in 10.0 mi Calm Calm - N/A   Scattered Clouds
7:52 PM 55.0 °F 48.9 °F 80% 30.09 in 10.0 mi Calm Calm - N/A   Clear
8:52 PM 51.1 °F 46.9 °F 86% 30.12 in 10.0 mi Calm Calm - N/A   Clear
9:52 PM 48.9 °F 46.9 °F 93% 30.14 in 10.0 mi Calm Calm - N/A   Clear
10:52 PM 48.9 °F 46.0 °F 90% 30.16 in 10.0 mi Calm Calm - N/A   Clear
11:52 PM 46.0 °F 45.0 °F 96% 30.18 in 10.0 mi Calm Calm - N/A   Clear